Regional Weather Roundup
Issued by NWS Green Bay, WI

Home | Current Version | Previous Version | Graphics & Text | Print | Product List | Glossary Off
Versions: 1 2 3 4 5 6 7 8 9 10 11 12 13 14 15 16 17 18 19 20 21 22 23 24 25 26 27 28 29 30 31 32 33 34 35 36 37 38 39 40 41 42 43 44 45 46 47 48 49 50

000
ASUS43 KGRB 270900
RWRGRB

NORTH-CENTRAL AND NORTHEAST WISCONSIN REGIONAL WEATHER ROUNDUP
NATIONAL WEATHER SERVICE GREEN BAY WI
400 AM CDT WED MAY 27 2015

WIZ005-009-010>012-018-019-271000-
NORTH CENTRAL WISCONSIN

CITY           SKY/WX    TMP DP  RH WIND       PRES   REMARKS
IRONWOOD       CLOUDY    50  50 100 W6        29.74R
MANITOWISH WTR NOT AVBL
ARBOR VITAE    NOT AVBL
EAGLE RIVER    NOT AVBL
LAND O LAKES   NOT AVBL
RHINELANDER    LGT RAIN  53  51  93 VRB7      29.73R
PHILLIPS       NOT AVBL
ANTIGO         NOT AVBL
TOMAHAWK       NOT AVBL
MERRILL        NOT AVBL
$$

WIZ013-073-271000-
NORTHEAST WISCONSIN

CITY           SKY/WX    TMP DP  RH WIND       PRES   REMARKS
IRON MOUNTAIN  LGT RAIN  57  56  96 NW8       29.64R
MARINETTE      CLOUDY    61  57  88 W8        29.61R
$$

WIZ017-030-035>037-045-271000-
CENTRAL WISCONSIN

CITY           SKY/WX    TMP DP  RH WIND       PRES   REMARKS
MEDFORD        NOT AVBL
WAUSAU         LGT RAIN  56  54  93 W13       29.74R FOG
MOSINEE        NOT AVBL
MARSHFIELD     LGT RAIN  57  53  86 W12       29.78R
WISC RAPIDS    CLOUDY    58  55  90 W9        29.79R
STEVENS POINT  NOT AVBL
WAUPACA        NOT AVBL
SHAWANO        NOT AVBL
CLINTONVILLE   NOT AVBL
$$

WIZ038-039-048-051-271000-
FOX VALLEY

CITY           SKY/WX    TMP DP  RH WIND       PRES   REMARKS
NWS GREEN BAY  CLOUDY    63  59  87 SW14G23   29.71R
APPLETON       NOT AVBL
OSHKOSH        CLOUDY    62  57  83 SW9G17    29.75R
FOND DU LAC    MOCLDY    61  56  83 SW8G17    29.77R
$$

WIZ022-050-052-271000-
EAST CENTRAL WISCONSIN

CITY           SKY/WX    TMP DP  RH WIND       PRES   REMARKS
STURGEON BAY   CLOUDY    63  57  82 SW21G29   29.66R
MANITOWOC      NOT AVBL
SHEBOYGAN      CLOUDY    62  57  83 W15G23    29.76R
$$

LMZ563-521-522-541>543-271000-
LAKESHORE

STATION/POSITION TIME  TEMP    WIND        PRES    VSBY  WAVE
                       AIR SEA DIR/SP/G                  HT/PER
                 (UTC) (F)     (DEG/KT/KT) (MB)    (MI)  (FT/S)
SHEBOYGAN LKSHOR 0800   63     230/ 18/ 22 1007.4S
KEWAUNEE LKSHORE 0800   65     230/ 21/ 28 1004.0R
ALGOMA MARINA    0823          220/ 27/ 33   N/A
NORTHPORT PIER   0800   51     150/  6/ 10 1003.4S
N MID LAKE BUOY  0750   44 37  190/ 17/ 21 1003.8F         4/ 5
SISTER BAY LKSHO 0803   52     170/  9/ 11   N/A
CHAMBERS ISLAND  0800   58     180/  6/ 14 1003.0S
MENOMINEE LKSHOR 0800   60     200/  7/ 11 1003.1F
$$


USA.gov is the U.S. government's official web portal to all federal, state and local government web resources and services.